Location: Leverkusen
(51.0459°N, 7.0192°E)
Time: 14:46:18
(UTC+01:00)

ISS - Visible Passes

Search period start: 25 January 2021 00:00
Search period end: 04 February 2021 00:00
Orbit: 418 x 421 km, 51.6° (Epoch: 25 January)

Date Brightness Start Highest point End Pass type
(mag) Time Alt. Az. Time Alt. Az. Time Alt. Az.
25 Jan -3.2 17:57:39 10° SW 18:00:55 49° SSE 18:04:02 11° E visible
25 Jan -3.0 19:34:17 10° W 19:37:00 54° W 19:37:00 54° W visible
26 Jan -3.8 18:46:54 10° W 18:50:18 87° N 18:51:35 36° ENE visible
26 Jan -0.7 20:23:47 10° W 20:24:33 16° W 20:24:33 16° W visible
27 Jan -3.7 17:59:32 10° WSW 18:02:55 81° SSE 18:06:09 11° E visible
27 Jan -3.1 19:36:24 10° W 19:39:07 54° WNW 19:39:07 54° WNW visible
28 Jan -3.8 18:49:00 10° W 18:52:23 78° N 18:53:41 35° E visible
28 Jan -0.7 20:25:51 10° W 20:26:40 16° W 20:26:40 16° W visible
29 Jan -3.7 18:01:35 10° W 18:04:58 80° N 18:08:16 11° E visible
29 Jan -3.1 19:38:26 10° WNW 19:41:15 57° W 19:41:15 57° W visible
30 Jan -3.8 18:51:01 10° W 18:54:26 90° ESE 18:55:52 32° E visible
30 Jan -0.7 20:27:58 10° W 20:28:51 16° W 20:28:51 16° W visible
31 Jan -3.8 18:03:36 10° W 18:07:00 82° N 18:10:23 10° E visible
31 Jan -2.8 19:40:28 10° W 19:43:31 44° SW 19:43:31 44° SW visible
01 Feb -3.4 18:53:00 10° W 18:56:21 60° SSW 18:58:16 23° SE visible
01 Feb -0.6 20:30:27 10° W 20:31:15 13° WSW 20:31:15 13° WSW visible
02 Feb -3.6 18:05:33 10° WNW 18:08:56 76° SSW 18:12:19 10° ESE visible
02 Feb -1.8 19:42:39 10° W 19:45:25 23° SW 19:46:06 22° SSW visible
03 Feb -2.2 18:55:01 10° W 18:58:06 33° SSW 19:01:04 11° SE visible
